Stations météo

réclame
Mon MeteoGroup
Düsseldorf, Allemagne (10400): Température de l'air & dewpoint: 15.07.2019 00:00:00 - 21.07.2019 00:00:00 (CEST)Düsseldorf, Allemagne (10400): Température de l'air 5cm & Température de l'air -5cm: 15.07.2019 00:00:00 - 21.07.2019 00:00:00 (CEST)Düsseldorf, Allemagne (10400): Température de l'air -20cm & Température de l'air -100cm: 15.07.2019 00:00:00 - 21.07.2019 00:00:00 (CEST)Düsseldorf, Allemagne (10400): Vitesse du vent & gusts: 15.07.2019 00:00:00 - 21.07.2019 00:00:00 (CEST)Düsseldorf, Allemagne (10400): Direction du vent: 15.07.2019 00:00:00 - 21.07.2019 00:00:00 (CEST)Düsseldorf, Allemagne (10400): reduced air pressure: 15.07.2019 00:00:00 - 21.07.2019 00:00:00 (CEST)Düsseldorf, Allemagne (10400): visibility: 15.07.2019 00:00:00 - 21.07.2019 00:00:00 (CEST)Düsseldorf, Allemagne (10400): Ensoleillement: 15.07.2019 00:00:00 - 21.07.2019 00:00:00 (CEST)Düsseldorf, Allemagne (10400): Quantités de précipitations: 15.07.2019 00:00:00 - 21.07.2019 00:00:00 (CEST)
Date & Time tt [°C] td [°C] tt 5cm [°C] tt -5cm [°C] tt -20cm [°C] tt -100cm [°C] ff [km/h] ff [knt] fx [km/h] fx [knt] dd ppp [hPa] vv [km] sd [min] rr [mm]
21.07.2019 00:00:00 17,7 16,8 15,6 20,2 22,6 20,2 6 3 11 6 SW 1014,9 35 0 0,0
20.07.2019 23:00:00 19,4 17,8 18,2 20,6 22,9 20,2 12 6 26 14 WNW 1014,1 40 0 0,0
20.07.2019 22:00:00 20,5 17,5 19,3 21,3 23,2 20,1 16 9 29 16 S 1012,5 10 0 0,0
20.07.2019 21:00:00 21,0 17,7 20,0 22,5 23,4 20,1 16 9 26 14 S 1011,8 40 46 0,0
20.07.2019 20:00:00 21,7 17,6 21,1 23,2 23,5 20,1 15 8 22 12 S 1011,7 10 35 0,0
20.07.2019 19:00:00 20,5 18,3 20,1 22,4 23,8 20,1 9 5 21 11 S 1011,8 25 0 0,4
20.07.2019 18:00:00 19,2 17,5 18,9 22,4 24,3 20,1 6 3 24 13 W 1011,5 10 0 1,5
20.07.2019 17:00:00 18,8 15,9 17,4 22,8 24,8 20,1 21 11 51 28 W 1010,8 10 0 7,0
20.07.2019 16:00:00 19,5 15,5 18,2 25,5 24,9 20,1 11 6 69 37 N 1009,9 20 0 0,8
20.07.2019 15:00:00 25,8 17,0 25,7 28,6 24,7 20,0 13 7 22 12 W 1010,0 15 11 0,6
20.07.2019 14:00:00 26,7 15,4 27,8 27,8 24,3 20,0 11 6 41 22 WNW 1010,2 30 0 0,0
20.07.2019 13:00:00 28,9 13,0 30,2 28,4 23,8 20,0 29 16 37 20 SW 1009,9 40 11 0,0
20.07.2019 12:00:00 28,5 14,2 30,8 28,1 23,2 20,0 21 11 33 18 SSW 1010,1 10 35 0,0
20.07.2019 11:00:00 27,3 15,3 30,6 25,8 22,7 20,0 21 11 37 20 S 1010,4 10 36 0,0
20.07.2019 10:00:00 24,4 15,0 25,4 24,1 22,4 20,0 24 13 37 20 SSE 1010,6 10 49 0,0
20.07.2019 09:00:00 22,4 14,3 23,8 22,1 22,3 19,9 22 12 37 20 SSE 1010,8 10 60 0,0
20.07.2019 08:00:00 20,5 13,9 20,9 21,0 22,4 19,9 22 12 34 18 SSE 1011,0 10 55 0,0
20.07.2019 07:00:00 19,0 13,4 18,7 20,5 22,6 19,9 22 12 32 17 SSE 1011,4 50 23 0,0
20.07.2019 06:00:00 18,3 13,0 17,4 20,7 22,9 19,9 21 11 29 16 SSE 1011,7 10 0 0,0
20.07.2019 05:00:00 18,6 12,8 17,6 21,1 23,3 19,9 21 11 31 17 SSE 1012,1 10 0 0,0
20.07.2019 04:00:00 19,0 12,6 17,9 21,5 23,6 19,9 19 11 29 16 SSE 1012,4 60 0 0,0
20.07.2019 03:00:00 19,5 12,0 18,3 22,0 23,9 19,9 16 9 23 13 SSE 1012,6 50 0 0,0
20.07.2019 02:00:00 20,1 11,9 18,8 22,4 24,4 19,8 15 8 22 12 SSE 1013,2 10 0 0,0
20.07.2019 01:00:00 18,9 12,0 16,5 23,0 24,8 19,8 11 6 14 8 SSE 1013,5 10 0 0,0
20.07.2019 00:00:00 19,3 11,6 16,0 24,0 25,2 19,8 4 2 11 6 E 1013,6 10 0 0,0
19.07.2019 23:00:00 22,1 10,9 17,9 25,3 25,6 19,8 9 5 15 8 SW 1013,5 10 0 0,0
19.07.2019 22:00:00 23,1 10,7 21,7 26,4 25,9 19,8 11 6 15 8 SW 1013,6 10 0 0,0
19.07.2019 21:00:00 24,1 10,4 23,5 27,6 26,1 19,8 11 6 21 11 SW 1013,5 10 1 0,0
19.07.2019 20:00:00 24,6 10,2 24,9 29,3 26,2 19,8 9 5 28 15 WSW 1013,3 10 53 0,0
19.07.2019 19:00:00 25,2 9,7 27,7 30,6 26,0 19,8 16 9 29 16 SW 1013,5 10 36 0,0
19.07.2019 18:00:00 25,0 10,3 27,4 31,4 25,7 19,8 16 9 27 15 WSW 1013,7 10 41 0,0
19.07.2019 17:00:00 24,9 11,1 27,5 31,0 25,2 19,8 18 10 33 18 SW 1013,9 50 8 0,0
19.07.2019 16:00:00 24,6 10,7 29,4 32,0 24,6 19,8 18 10 29 16 WSW 1014,2 50 53 0,0
19.07.2019 15:00:00 24,5 11,3 29,2 30,7 23,9 19,8 15 8 31 17 W 1014,1 10 43 0,0
19.07.2019 14:00:00 24,0 11,8 30,1 30,0 23,1 19,8 18 10 31 17 WSW 1014,2 10 50 0,0
19.07.2019 13:00:00 22,5 11,9 28,1 27,8 22,3 19,8 18 10 34 18 WSW 1014,3 45 44 0,0
19.07.2019 12:00:00 23,0 11,0 27,4 25,9 21,8 19,7 21 11 37 20 SW 1014,4 10 56 0,0
19.07.2019 11:00:00 21,4 13,7 24,9 23,3 21,4 19,7 16 9 24 13 SW 1014,1 10 33 0,0
19.07.2019 10:00:00 20,0 14,7 21,5 22,0 21,2 19,7 11 6 16 9 WSW 1014,3 10 10 0,0
19.07.2019 09:00:00 19,3 15,4 20,4 21,0 21,2 19,7 11 6 16 9 WSW 1014,1 10 0 0,0
19.07.2019 08:00:00 18,6 14,9 19,2 20,4 21,3 19,7 14 8 21 11 SW 1013,9 30 0 0,0
19.07.2019 07:00:00 18,1 15,1 17,9 19,9 21,4 19,7 14 8 18 10 SSW 1013,4 30 0 0,0
19.07.2019 06:00:00 17,5 14,7 16,7 20,1 21,6 19,7 13 7 16 9 SW 1013,4 40 0 0,0
19.07.2019 05:00:00 18,0 14,7 17,0 20,4 21,8 19,7 8 4 13 7 SW 1013,3 10 0 0,0
19.07.2019 04:00:00 18,0 14,2 17,0 20,5 22,0 19,7 10 6 13 7 SW 1013,2 45 0 0,0
19.07.2019 03:00:00 17,1 13,3 15,6 20,8 22,3 19,7 5 3 8 4 SW 1013,0 10 0 0,0
19.07.2019 02:00:00 19,2 13,9 18,1 21,3 22,5 19,7 8 4 18 10 WNW 1013,1 10 0 0,0
19.07.2019 01:00:00 19,9 13,5 19,1 21,8 22,8 19,7 11 6 21 11 W 1013,1 10 0 0,0
19.07.2019 00:00:00 20,2 14,4 19,6 22,2 23,1 19,7 9 5 28 15 WSW 1012,9 10 0 0,0
18.07.2019 23:00:00 20,7 13,9 19,4 22,9 23,3 19,7 22 12 36 19 W 1012,4 10 0 0,1
18.07.2019 22:00:00 21,5 12,4 19,7 23,5 23,5 19,7 5 3 15 8 WSW 1011,9 60 0 0,0
18.07.2019 21:00:00 22,3 11,8 22,0 24,2 23,7 19,7 11 6 18 10 W 1011,5 10 0 0,0
18.07.2019 20:00:00 23,0 10,3 22,7 25,2 23,8 19,7 15 8 29 16 W 1011,3 10 0 0,0
18.07.2019 19:00:00 24,0 12,2 24,4 26,1 23,8 19,7 20 11 31 17 W 1011,0 40 0 0,0
18.07.2019 18:00:00 24,7 12,8 25,5 27,0 23,6 19,7 16 9 34 18 WSW 1010,9 10 0 0,0
18.07.2019 17:00:00 25,0 11,6 27,6 27,3 23,4 19,7 21 11 31 17 W 1010,9 10 19 0,0
18.07.2019 16:00:00 22,9 13,1 24,0 25,8 23,4 19,7 16 9 44 24 W 1011,3 35 0 0,1
18.07.2019 15:00:00 23,8 11,2 23,8 28,4 22,9 19,7 31 17 45 24 WSW 1011,3 30 16 0,0
18.07.2019 14:00:00 25,5 11,4 29,2 29,3 22,1 19,7 26 14 38 20 WSW 1011,1 35 48 0,0
18.07.2019 13:00:00 25,6 10,5 30,1 27,4 21,3 19,7 11 6 29 16 SW 1011,2 10 33 0,0
18.07.2019 12:00:00 24,2 11,6 28,2 25,6 20,5 19,7 16 9 24 13 SW 1011,5 10 56 0,0
18.07.2019 11:00:00 22,6 10,9 25,6 23,0 20,0 19,7 15 8 22 12 S 1011,6 10 59 0,0
18.07.2019 10:00:00 20,4 12,2 22,6 20,5 19,7 19,7 11 6 16 9 SE 1011,9 27 17 0,0
18.07.2019 09:00:00 18,4 12,1 20,2 19,4 19,6 19,7 14 7 21 11 SE 1012,1 27 38 0,0
18.07.2019 08:00:00 16,5 12,2 16,4 18,0 19,7 19,7 13 7 19 10 SSE 1012,2 10 2 0,0
18.07.2019 07:00:00 16,0 12,1 15,4 17,7 19,8 19,7 9 5 13 7 SSE 1012,2 10 0 0,0
18.07.2019 06:00:00 14,8 11,9 13,6 17,7 20,1 19,7 11 6 18 10 SE 1012,3 10 0 0,0
18.07.2019 05:00:00 15,1 11,8 14,2 17,9 20,3 19,7 11 6 16 9 SSE 1012,6 10 0 0,0
18.07.2019 04:00:00 14,5 11,8 13,2 18,0 20,6 19,7 11 6 16 9 SSE 1012,9 20 0 0,0
18.07.2019 03:00:00 13,0 11,8 10,6 18,2 21,0 19,7 6 3 8 4 E 1013,3 20 0 0,0
18.07.2019 02:00:00 13,5 11,8 9,8 18,8 21,4 19,7 5 3 8 4 E 1013,5 10 0 0,0
18.07.2019 01:00:00 14,8 12,0 12,3 19,6 21,8 19,7 8 4 11 6 SE 1013,5 10 0 0,0
18.07.2019 00:00:00 15,3 11,6 13,4 20,5 22,2 19,7 9 5 13 7 ESE 1013,6 10 0 0,0
17.07.2019 23:00:00 17,0 11,9 15,0 21,5 22,5 19,8 9 5 22 12 ESE 1013,7 10 0 0,0
17.07.2019 22:00:00 19,7 12,0 18,1 22,6 22,9 19,8 13 7 18 10 SSE 1013,7 10 0 0,0
17.07.2019 21:00:00 20,6 11,1 19,2 24,1 23,0 19,8 8 4 16 9 SE 1013,4 10 1 0,0
17.07.2019 20:00:00 21,9 11,1 22,9 25,3 23,1 19,8 11 6 20 11 ESE 1013,5 10 20 0,0
17.07.2019 19:00:00 22,1 10,6 23,0 27,4 22,9 19,8 9 5 16 9 E 1013,6 10 19 0,0
17.07.2019 18:00:00 23,1 10,3 27,5 28,9 22,2 19,8 5 3 15 8 - 1014,0 10 50 0,0
17.07.2019 17:00:00 22,9 10,9 27,0 28,8 21,4 19,8 8 4 16 9 - 1014,7 10 56 0,0
17.07.2019 16:00:00 21,5 10,8 27,7 26,8 20,6 19,8 8 4 21 11 E 1015,3 30 35 0,0
17.07.2019 15:00:00 20,7 11,7 25,1 24,5 20,1 19,8 9 5 16 9 ENE 1015,7 25 7 0,0
17.07.2019 14:00:00 19,2 11,4 21,6 22,7 19,6 19,9 8 4 16 9 - 1016,2 10 0 0,0
17.07.2019 13:00:00 18,5 11,5 21,6 21,2 19,2 19,9 5 3 11 6 - 1016,5 10 0 0,0
17.07.2019 12:00:00 17,3 11,5 19,5 19,9 19,0 19,9 5 3 9 5 - 1016,5 10 0 0,0
17.07.2019 11:00:00 16,8 11,9 18,0 19,4 18,8 19,9 5 3 9 5 WNW 1016,5 9 0 0,0
17.07.2019 10:00:00 16,7 11,7 17,7 18,4 18,7 19,9 5 3 9 5 S 1016,7 8 0 0,0
17.07.2019 09:00:00 15,9 11,5 16,6 17,7 18,6 19,9 4 2 11 6 SSE 1016,6 8 0 0,0
17.07.2019 08:00:00 14,2 12,0 14,9 17,1 18,7 19,9 5 3 9 5 SE 1016,5 9 0 0,0
17.07.2019 07:00:00 13,7 11,7 14,0 16,8 18,7 19,9 5 3 11 6 N 1016,7 10 0 0,0
17.07.2019 06:00:00 12,7 11,7 13,0 16,5 18,9 19,9 5 3 9 5 NE 1016,9 15 0 0,0
17.07.2019 05:00:00 11,8 11,2 12,1 16,2 19,1 19,9 5 3 11 6 NNE 1016,8 10 0 0,0
17.07.2019 04:00:00 9,6 9,1 6,9 15,9 19,5 20,0 3 1 4 2 N 1017,2 15 0 0,0
17.07.2019 03:00:00 9,9 9,2 6,9 16,5 19,9 20,0 2 1 5 3 N 1017,3 15 0 0,0
17.07.2019 02:00:00 10,6 9,7 7,5 17,1 20,3 20,0 4 2 5 3 NE 1017,4 10 0 0,0
17.07.2019 01:00:00 11,6 10,1 8,3 17,9 20,7 20,0 4 2 9 5 ENE 1017,6 30 0 0,0
17.07.2019 00:00:00 12,6 11,0 9,5 18,8 21,1 20,0 4 2 5 3 NE 1017,6 10 0 0,0
16.07.2019 23:00:00 14,3 10,7 10,6 20,0 21,5 20,1 4 2 9 5 N 1017,8 10 0 0,0
16.07.2019 22:00:00 16,4 11,1 14,9 21,4 21,7 20,1 8 4 11 6 N 1017,6 10 0 0,0
16.07.2019 21:00:00 19,1 10,9 19,2 23,1 21,8 20,1 9 5 11 6 NNE 1017,6 10 40 0,0
16.07.2019 20:00:00 19,7 11,2 20,4 24,1 21,7 20,1 8 4 13 7 NE 1017,7 30 10 0,0
16.07.2019 19:00:00 19,8 10,4 21,6 25,6 21,3 20,1 8 4 15 8 NNW 1017,8 35 45 0,0
16.07.2019 18:00:00 20,0 10,6 22,9 25,6 20,8 20,2 8 4 14 7 NNW 1018,1 10 42 0,0
16.07.2019 17:00:00 18,5 10,0 21,3 25,1 20,2 20,2 5 3 23 12 - 1018,7 10 19 0,0
16.07.2019 16:00:00 18,5 10,4 21,8 23,8 19,6 20,2 13 7 22 12 WNW 1018,9 10 5 0,0
16.07.2019 15:00:00 17,6 9,8 20,7 21,9 19,2 20,2 9 5 24 13 WNW 1019,2 10 0 0,0
16.07.2019 14:00:00 17,2 10,2 19,7 20,3 18,9 20,2 5 3 19 10 W 1019,3 10 0 0,0
16.07.2019 13:00:00 15,9 10,2 17,4 19,4 18,6 20,2 11 6 22 12 WNW 1019,9 40 0 0,0
16.07.2019 12:00:00 15,4 9,8 16,8 18,8 18,4 20,3 11 6 21 11 W 1019,9 60 0 0,0
16.07.2019 11:00:00 14,8 9,4 15,8 18,0 18,3 20,3 14 8 21 11 W 1020,0 60 0 0,0
16.07.2019 10:00:00 14,9 9,8 15,9 17,6 18,2 20,3 15 8 21 11 WNW 1019,8 40 0 0,0
16.07.2019 09:00:00 13,7 11,3 14,9 16,7 18,1 20,3 6 4 16 9 N 1019,8 30 0 0,0
16.07.2019 08:00:00 13,7 10,9 14,1 16,3 18,1 20,3 5 3 9 5 WNW 1019,7 10 0 0,0
16.07.2019 07:00:00 12,7 10,4 13,1 15,9 18,2 20,3 4 2 5 3 - 1019,5 10 0 0,0
16.07.2019 06:00:00 11,1 9,8 11,4 15,4 18,4 20,3 2 1 4 2 SW 1019,2 30 0 0,0
16.07.2019 05:00:00 9,2 8,4 9,0 14,9 18,7 20,4 0 0 3 2 N 1019,6 30 0 0,0
16.07.2019 04:00:00 8,8 7,9 5,6 15,3 19,1 20,4 2 1 4 2 NNE 1019,7 40 0 0,0
16.07.2019 03:00:00 9,6 8,8 5,9 16,0 19,4 20,4 4 2 7 4 - 1020,0 10 0 0,0
16.07.2019 02:00:00 12,2 9,1 8,6 16,8 19,7 20,4 4 2 13 7 NNW 1019,9 10 0 0,0
16.07.2019 01:00:00 13,7 9,1 12,2 17,7 20,0 20,4 11 6 21 11 N 1019,7 10 0 0,0
16.07.2019 00:00:00 15,7 9,6 14,8 18,5 20,2 20,4 13 7 21 11 NNW 1019,6 10 0 0,0
15.07.2019 23:00:00 16,3 10,3 15,6 19,0 20,4 20,5 9 5 13 7 W 1019,2 10 0 0,0
15.07.2019 22:00:00 16,9 9,9 16,2 19,6 20,5 20,5 9 5 12 6 W 1019,3 10 0 0,0
15.07.2019 21:00:00 17,5 9,4 17,3 20,3 20,5 20,5 11 6 15 8 W 1019,2 10 0 0,0
15.07.2019 20:00:00 17,8 9,1 18,2 20,9 20,5 20,5 11 6 16 9 WNW 1019,2 10 0 0,0
15.07.2019 19:00:00 17,7 9,0 18,4 21,1 20,3 20,5 12 7 22 12 WNW 1019,6 40 0 0,0
15.07.2019 18:00:00 17,6 9,6 18,6 21,5 20,1 20,5 11 6 20 11 WNW 1019,7 10 0 0,0
15.07.2019 17:00:00 16,7 10,1 18,5 20,4 20,0 20,5 11 6 17 9 NNW 1020,1 10 0 0,0
15.07.2019 16:00:00 16,3 10,2 17,0 20,6 19,8 20,6 13 7 22 12 N 1020,1 10 0 0,0
15.07.2019 15:00:00 16,6 10,1 17,9 20,2 19,6 20,6 12 7 21 11 NNW 1020,1 30 0 0,0
15.07.2019 14:00:00 15,6 9,7 16,6 19,7 19,4 20,6 10 6 18 10 NNW 1020,4 30 0 0,0
15.07.2019 13:00:00 15,3 9,7 17,4 19,2 19,3 20,6 9 5 18 10 NW 1020,3 10 0 0,0
15.07.2019 12:00:00 15,1 9,9 16,5 18,5 19,2 20,6 8 4 15 8 NE 1020,3 10 0 0,0
15.07.2019 11:00:00 14,5 10,4 15,4 17,9 19,2 20,6 6 4 14 8 NE 1020,5 40 0 0,0
15.07.2019 10:00:00 14,2 10,3 14,6 17,6 19,2 20,6 7 4 9 5 NNW 1020,4 35 0 0,0
15.07.2019 09:00:00 14,1 10,5 14,7 17,4 19,2 20,6 5 3 8 4 N 1020,2 35 0 0,0
15.07.2019 08:00:00 13,0 10,9 13,8 17,0 19,3 20,6 2 1 4 2 - 1020,0 10 0 0,0
15.07.2019 07:00:00 12,1 10,4 12,7 16,5 19,5 20,6 2 1 4 2 - 1019,8 10 0 0,0
15.07.2019 06:00:00 10,0 9,5 9,9 15,9 19,8 20,7 2 1 2 1 SE 1019,8 27 0 0,0
15.07.2019 05:00:00 9,1 7,9 5,9 16,4 20,2 20,7 2 1 5 3 NNE 1019,7 10 0 0,0
15.07.2019 04:00:00 11,2 9,3 7,3 17,1 20,5 20,7 5 3 9 5 N 1019,8 10 0 0,0
15.07.2019 03:00:00 12,6 9,6 10,7 17,9 20,9 20,7 8 4 13 7 NNW 1020,1 10 0 0,0
15.07.2019 02:00:00 13,9 10,0 12,3 18,7 21,1 20,7 8 4 18 10 N 1020,1 45 0 0,0
15.07.2019 01:00:00 15,5 10,1 15,2 19,5 21,3 20,7 16 9 31 17 N 1020,2 10 0 0,0
15.07.2019 00:00:00 16,6 10,9 16,4 19,9 21,5 20,7 19 11 28 15 N 1019,9 50 0 0,0

tt = Température de l'air
td = dewpoint
tt 5cm = Température de l'air 5cm
tt -5cm = Température de l'air -5cm
tt -20cm = Température de l'air -20cm
tt -100cm = Température de l'air -100cm
ff = Vitesse du vent
fx = gusts
dd = Direction du vent
ppp = reduced air pressure
vv = visibility
sd = Ensoleillement
rr = Quantités de précipitations

stations d'obs. à proximité